CZ-6A DEB, 64659

Orbit data source: Space-Track

CZ-6A DEB, 64659 is space debris in LEO originally from a launch on Tue, 06 Aug 2024 UTC launched from the Taiyaun Space Center, China (TSC). Debris objects in space refer to the collection of defunct objects orbiting the Earth. Examples of debris include non-operational satellites, rocket bodies, and fragments generated from explosions, collisions, or faulty payload assembly.

Loading next visibility...
Identifier
64659, 2024-140AEZ
Orbit
LEO
Country
Flag of CNCN / PRC
Related business
Manufacturer
SAST
Mission
Spacecraft
Bus & Motor
Unknown
Mass
Unknown
Launch date (UTC)
2024-08-06 (2 years ago)
Launch vehicle
Unknown
Launch site
Taiyaun Space Center, China (TSC)
Object type
Payload
Rocket body
Debris
Shape & HBR
Unknown shape, 0.1 m
Radar Cross Section
Small (<0.1 m²)

Expand to show TLE details & history
Last TLE update: 18 hours ago

TLE from 18 hours ago
0 CZ-6A DEB
1 64659U 24140AEZ 26171.21778342  .00002607  00000-0  48053-3 0  9990
2 64659  88.9114 261.6612 0098905 222.8518 136.4958 14.62102967 88185
Epoch: 2026-06-20T05:13Z
TLE epoch observation values (Epoch: 2026-06-20T05:13:36.487Z)
Latitude
-0.00009°
Longitude
-85.1764°
Altitude
740.519 km
Speed
7.457 km/s
True Right ascension
17h 26m 38s
True Declination
0° 00' 00"
Sunlit
Object was in full shadow at epoch
Visualization orbit readout
Latitude
Unknown
Longitude
Unknown
Altitude
Unknown
Speed
Unknown
Apparent Right ascension
Unknown
Apparent Declination
Unknown
Sunlit
N/A
Visualization observer readout
Local Sidereal Time
10:19:33
Azimuth
Unknown
Elevation
Unknown
Doppler factor
Unknown
Orbital elements
Apogee altitude
753.124 km
Perigee altitude
613.442 km
Semi-major axis
7,061.42 km
Eccentricity
0.00989
Inclination
88.9114°
RAAN
261.6612°
Arg. of periapsis
222.8518°
True anomaly
137.26906°
Mean anomaly
136.4958°
Eccentric anomaly
136.88312°
Mean motion
3.65767 °/min
Orbital period
98.42 mins
BSTAR
0.00048053
Loading maneuver chart data...
Computing Atmospheric mass density...
Loading historical data...
Loading historical data...
Loading historical data...
Loading historical data...
Loading historical data...
Loading historical data...
Loading historical data...

Documentation

Showing up to 5 results
|